Theta_e
335 337 340 345 348 350 352 352 355 355 355 355 356 360 360 357 358 361 359 358 363 357 352 354 355 356 356 357 357 356 355 354 354 354 356 356 344 340 344 343 344 346 345 345 346 348 348 346 341 334 330 326 325 327 326 327 327 328 328 327 326 323 323 324 324 324 325 325 326 326 325 325 324 325 327 330 331 330 328 327 326 324 321 322 331 340 343 344 343 338 331 330 331 331 331 330 329
341 344 347 349 351 352 352 352 358 358 355 355 358 363 360 358 359 361 361 361 362 357 356 356 356 356 355 355 354 357 358 355 353 354 355 350 342 344 345 342 342 344 344 343 345 347 346 342 336 332 330 326 325 326 325 326 327 327 327 326 324 322 323 325 325 325 325 325 325 325 325 325 326 329 331 331 328 325 323 322 321 320 325 332 340 343 343 342 340 335 332 333 332 331 330 329 331
348 349 350 351 352 352 353 353 357 356 355 355 358 364 360 360 361 360 360 359 358 357 359 357 357 357 355 357 356 359 360 356 353 352 353 348 344 348 346 342 340 341 341 342 343 344 343 338 334 329 327 325 325 325 324 325 325 325 324 324 323 322 322 324 325 324 325 325 325 326 327 329 330 331 332 328 322 321 320 319 320 325 335 341 342 341 339 337 335 334 334 333 331 330 329 329 335
351 351 352 352 352 354 355 357 358 355 354 354 357 363 360 360 360 359 357 355 356 358 359 357 358 358 356 359 357 357 357 356 354 349 351 348 346 349 346 343 342 341 339 339 342 342 338 334 331 327 326 325 324 325 324 324 323 323 323 322 322 322 322 323 325 325 326 327 328 330 330 332 333 334 333 326 320 319 320 323 329 336 340 341 340 337 336 335 335 335 333 330 329 329 330 334 341
353 353 353 353 354 355 357 358 359 356 356 357 358 362 360 358 357 357 355 353 357 358 358 357 358 358 357 359 357 356 356 356 354 349 350 350 350 348 346 344 342 340 336 335 339 338 334 331 329 328 327 326 325 324 324 324 323 323 323 323 323 323 324 325 327 328 329 330 331 333 334 336 337 338 335 327 320 319 324 331 338 341 341 340 338 336 336 336 334 333 330 329 329 331 336 340 344
354 354 353 353 354 353 357 357 357 358 359 361 361 362 358 357 356 354 354 353 356 357 358 358 357 357 357 358 356 355 355 355 355 352 349 351 351 348 346 344 339 335 333 334 336 335 333 330 329 328 327 326 325 325 324 324 323 323 323 324 324 325 327 328 330 331 331 331 333 335 338 338 340 341 336 328 321 321 328 336 340 339 338 337 335 336 336 334 331 330 331 331 332 336 341 343 344
353 353 353 355 355 354 359 359 357 360 360 360 360 360 358 355 354 353 353 354 355 356 358 357 355 358 357 356 356 356 354 355 355 352 350 351 351 349 345 343 337 331 332 333 334 334 333 330 328 328 327 326 326 325 325 325 325 325 326 327 328 330 331 332 332 333 332 332 334 337 339 340 342 340 331 325 321 323 331 336 336 335 334 334 334 335 333 330 331 333 335 336 336 341 343 343 344
353 353 353 356 359 357 361 360 358 361 360 357 357 357 355 354 354 353 353 355 357 356 357 356 354 358 356 354 357 356 354 355 354 352 352 352 351 349 345 343 338 330 331 333 334 335 332 331 329 328 328 328 328 328 328 328 328 328 329 330 332 333 334 334 334 334 334 334 336 337 338 339 339 334 325 322 323 327 333 334 333 333 332 333 334 333 330 331 334 336 339 338 339 343 343 343 344
353 354 353 356 361 360 360 360 359 361 359 357 356 355 354 354 353 353 354 356 357 357 358 356 355 357 355 354 357 355 354 354 353 353 354 353 351 349 345 343 339 330 328 331 332 333 332 332 330 330 329 329 329 329 330 330 331 331 332 334 335 336 336 336 336 336 336 337 337 338 337 337 334 327 322 324 327 331 333 333 333 332 331 333 332 330 331 335 338 339 339 338 340 343 343 343 343
353 353 354 357 360 358 357 358 360 361 359 357 357 356 355 354 353 353 355 357 358 359 357 355 356 357 355 355 357 356 356 354 354 355 355 353 351 347 344 343 339 329 326 327 328 329 331 331 331 330 330 329 330 331 331 332 334 335 337 339 338 338 338 338 338 338 339 339 338 338 336 333 329 326 327 329 331 333 333 333 332 332 332 331 329 330 334 338 339 339 338 338 341 343 344 343 342
354 353 353 357 358 355 354 356 360 362 359 357 357 354 354 355 353 353 354 357 359 358 357 355 357 357 355 355 356 357 356 355 354 355 354 353 350 346 344 343 339 331 326 324 324 325 327 330 332 331 330 330 332 335 335 336 338 339 341 341 340 339 339 339 339 339 339 340 338 337 334 331 330 331 332 333 334 333 332 332 332 332 331 329 329 333 338 339 340 339 338 340 341 343 343 342 341
355 356 356 357 356 356 356 357 360 361 359 358 359 355 354 355 354 354 355 357 358 358 357 357 358 356 355 353 354 356 356 355 355 355 354 351 349 345 344 342 340 336 331 328 325 324 326 329 332 332 331 332 336 339 339 339 339 338 339 340 340 340 340 340 340 339 338 338 336 335 334 333 334 333 334 334 333 332 331 332 332 331 329 330 333 337 339 339 339 338 339 341 342 342 342 342 342
355 356 358 358 357 358 358 358 359 359 361 362 359 355 352 353 354 356 357 358 358 358 359 357 357 356 355 353 353 356 356 356 355 353 351 349 347 345 343 342 341 340 338 335 332 330 331 332 333 334 334 336 339 340 338 336 335 333 333 335 338 339 339 339 338 337 336 335 335 335 335 335 334 333 333 331 330 329 330 331 330 330 331 334 337 340 340 338 337 338 340 341 341 341 341 342 343
353 352 357 359 359 360 357 358 359 358 365 364 356 353 353 354 353 355 359 359 359 358 358 356 355 356 356 353 353 356 356 356 356 353 351 348 346 345 343 343 343 342 341 339 337 337 338 337 337 338 339 339 339 338 336 334 332 331 330 331 333 334 334 335 333 333 333 333 334 334 333 333 332 331 329 328 328 329 329 329 331 334 335 337 338 338 337 336 337 339 341 341 341 341 341 342 343
353 351 355 360 358 358 358 359 359 356 363 363 355 353 354 355 354 355 358 359 360 358 357 356 356 358 356 353 352 354 356 355 355 355 354 352 350 348 346 345 345 344 342 341 340 339 339 339 339 340 339 338 337 336 335 334 332 330 330 329 329 329 329 329 329 330 330 330 330 330 329 329 328 328 328 327 328 329 330 332 338 339 337 337 337 336 336 336 338 340 341 340 341 341 341 342 343
354 352 357 361 358 357 359 359 358 358 363 360 353 353 355 356 354 356 357 358 359 357 357 357 356 358 355 353 353 354 356 355 354 355 355 355 354 352 350 347 345 345 345 343 341 340 339 340 340 339 338 336 335 334 333 332 330 327 327 326 326 325 325 325 325 327 329 330 329 329 329 328 327 327 328 329 330 334 338 339 340 339 337 337 335 335 336 338 339 340 340 340 341 341 341 343 343
354 354 360 362 358 359 359 359 357 360 365 358 352 353 356 357 355 355 357 357 357 356 357 357 355 356 354 353 354 354 355 354 353 355 355 356 355 354 354 350 346 346 346 345 343 341 341 340 339 338 336 335 334 332 331 329 327 326 326 325 323 322 322 323 324 325 328 330 329 329 330 329 329 330 331 335 339 342 343 341 338 336 335 335 334 335 337 338 340 341 342 342 341 341 342 343 344
354 359 363 359 360 362 359 357 354 356 362 358 352 352 355 357 355 355 357 357 356 356 357 356 356 355 354 355 355 354 353 353 353 355 356 356 355 354 354 352 348 347 346 345 344 342 341 340 338 337 335 334 332 329 328 326 326 327 326 323 322 323 324 324 324 325 327 330 331 331 332 333 335 338 339 342 344 343 340 337 335 335 334 334 335 337 339 339 340 343 346 346 344 343 342 343 344
355 360 362 361 363 360 353 352 351 353 359 356 353 352 354 355 355 356 358 357 355 357 357 355 355 354 355 355 354 354 353 353 354 354 355 355 355 354 353 353 350 348 346 344 342 341 340 339 337 336 333 331 329 327 327 327 328 328 324 324 328 330 329 328 329 330 332 335 336 337 337 339 341 343 344 344 342 339 337 337 336 337 338 341 341 342 343 342 342 345 347 348 348 346 343 343 343
356 356 363 366 363 356 348 349 350 351 354 355 354 354 354 354 354 357 357 356 356 357 358 357 356 354 355 355 353 353 353 353 354 354 355 355 355 354 352 352 348 346 344 341 340 339 339 338 336 333 330 329 327 327 328 328 330 327 324 331 335 335 335 335 337 338 339 340 341 341 342 343 343 343 344 342 339 338 341 342 340 341 343 346 347 348 347 346 345 347 348 347 345 344 344 345 344
357 357 367 366 358 355 350 348 350 350 352 355 355 355 355 354 355 357 356 357 358 356 356 357 355 353 355 355 352 351 352 353 353 354 354 354 355 353 351 348 345 342 341 340 339 337 337 335 332 330 329 328 327 329 330 332 331 326 328 337 338 338 339 340 341 342 342 342 342 343 343 343 342 342 342 342 341 343 345 344 345 345 346 348 348 349 348 348 348 348 348 344 342 344 346 347 346
357 358 361 358 355 356 352 348 351 352 352 354 354 356 356 354 354 356 356 357 357 354 354 355 353 352 355 354 351 349 350 352 353 353 352 353 354 353 351 347 344 343 340 338 336 335 334 331 329 328 328 328 330 333 336 337 332 325 332 341 340 340 342 341 342 343 343 342 342 343 343 342 341 341 343 344 345 347 346 345 346 346 347 348 348 349 348 348 349 348 348 344 343 347 348 348 347
359 360 355 354 355 356 352 348 351 351 351 352 353 356 354 353 355 355 356 356 355 353 353 354 352 352 353 354 351 349 351 352 353 353 352 353 353 353 353 349 347 345 339 335 333 332 332 329 329 328 327 329 333 336 337 336 331 329 338 343 342 342 342 343 342 342 342 342 342 343 343 342 342 344 345 346 347 346 346 345 347 347 347 347 347 347 347 347 349 348 347 345 345 348 348 348 348
358 363 357 354 355 354 354 351 350 351 351 353 353 354 354 355 357 355 355 356 354 354 353 353 354 353 352 353 352 351 351 351 352 353 352 352 352 351 352 350 349 346 340 336 333 331 331 329 329 328 329 331 334 335 335 333 333 336 341 343 343 343 343 343 342 341 342 342 343 343 343 344 345 347 347 348 347 346 346 345 346 346 346 347 346 345 345 347 348 348 347 346 347 348 348 348 348
359 363 358 353 355 353 354 353 351 352 353 354 353 353 354 355 356 353 354 356 355 355 354 353 355 354 353 353 354 353 351 350 350 352 351 350 350 350 350 350 350 348 344 341 336 332 330 330 331 329 331 334 334 334 334 335 337 339 341 343 343 343 343 342 341 340 341 343 344 343 345 346 346 347 348 348 348 347 347 347 345 346 346 348 347 345 345 346 347 348 348 347 348 349 348 347 346
359 358 355 353 354 351 352 353 354 355 354 354 356 356 354 353 355 355 354 354 355 354 354 354 355 355 354 354 353 353 352 350 349 350 350 350 349 350 351 350 349 348 346 345 342 337 332 332 332 331 333 337 335 336 337 338 340 340 341 342 342 342 342 341 339 339 341 344 344 345 347 347 347 348 348 348 348 347 347 347 346 345 347 348 348 346 347 348 348 349 349 348 348 348 347 346 344
355 352 352 352 352 350 351 352 352 356 356 355 360 360 355 354 358 362 357 354 356 355 355 356 357 356 354 355 354 354 353 350 349 349 350 349 349 351 350 349 349 348 347 346 345 343 340 336 337 336 336 339 338 339 341 339 342 343 341 341 341 341 341 340 339 338 341 344 345 346 346 346 347 349 349 348 348 347 347 348 346 345 347 349 349 348 348 348 349 349 348 348 347 346 345 345 345
351 351 353 352 351 350 350 353 353 356 359 356 360 361 356 355 361 363 356 357 358 356 358 358 357 356 354 356 356 354 353 351 349 349 350 349 349 350 349 349 349 348 347 346 346 347 345 342 342 342 340 342 341 341 343 340 342 346 342 339 340 340 341 342 340 339 341 343 345 345 345 346 348 350 350 349 348 347 347 349 347 346 348 348 349 349 349 348 347 347 346 347 346 345 345 345 345
348 350 357 359 356 357 354 355 355 356 362 358 357 361 360 359 362 360 354 358 360 357 359 360 358 356 355 357 356 354 353 351 349 348 349 349 349 348 348 349 348 348 347 347 347 347 347 345 346 345 343 345 344 342 344 341 343 346 343 341 340 339 342 344 342 342 343 342 343 345 344 346 349 349 349 350 350 348 348 348 348 348 349 348 348 348 348 347 347 347 346 346 346 346 345 344 344
350 353 358 359 357 366 362 353 356 358 360 359 356 361 367 363 358 357 355 359 360 358 360 359 358 357 356 358 357 356 354 351 350 349 348 348 348 347 347 348 348 348 348 348 348 347 348 347 346 345 345 347 344 342 344 342 343 346 345 344 342 341 344 346 344 344 344 342 340 342 345 347 348 348 348 349 349 349 348 347 348 348 348 348 347 346 347 346 346 346 346 346 346 345 345 344 343
354 353 358 357 350 367 373 355 358 365 360 357 357 362 371 368 358 357 356 359 361 360 359 357 357 357 356 358 357 357 355 351 351 350 348 348 347 346 346 347 347 348 348 348 349 347 347 348 347 345 346 347 343 342 344 341 342 345 346 346 344 344 346 345 344 344 345 343 338 340 344 347 348 346 348 349 347 348 348 348 348 347 347 347 346 347 346 345 346 346 345 345 345 346 345 344 343
358 347 357 363 349 365 378 356 357 370 364 357 357 362 369 367 358 357 357 359 361 359 357 354 356 357 357 358 357 357 356 352 351 350 349 348 347 346 346 347 347 347 347 347 348 346 347 348 347 344 346 346 341 342 344 342 342 343 345 345 343 345 346 343 343 343 343 341 338 337 338 340 343 343 345 347 345 345 348 348 348 347 347 346 345 346 346 346 346 345 345 345 345 345 344 343 344
359 349 352 360 351 356 367 358 354 363 366 362 361 366 371 368 358 357 359 359 360 359 357 353 355 357 357 357 356 355 355 354 352 351 350 349 347 346 346 347 347 347 346 346 347 346 346 347 346 345 346 343 340 343 344 342 342 342 345 344 342 344 344 342 343 344 344 340 336 336 336 335 337 337 338 341 343 345 348 347 348 347 346 345 345 346 347 347 345 345 345 344 344 344 343 344 345
358 356 349 356 356 348 354 360 357 358 366 368 367 369 372 367 360 358 359 360 359 358 357 355 355 356 357 357 355 354 354 355 353 351 351 349 347 346 346 346 347 347 346 346 347 346 346 346 345 345 344 340 340 342 342 343 342 342 344 342 341 344 344 344 345 345 344 342 340 341 343 343 342 337 334 336 341 346 347 346 347 347 345 345 346 347 347 347 346 347 347 345 345 345 345 345 345
354 353 348 355 358 349 351 357 358 361 367 371 369 368 367 361 358 358 358 359 358 357 356 356 356 356 356 357 355 354 354 354 354 351 350 349 347 347 346 346 347 347 346 346 347 346 345 346 345 345 342 339 340 340 342 343 342 342 342 340 341 345 345 346 347 346 345 344 344 345 345 347 348 341 334 335 339 343 345 346 346 345 345 346 346 347 346 346 347 347 348 347 346 345 345 345 345
348 351 354 355 350 348 353 353 355 361 364 372 372 367 367 361 358 359 358 359 357 355 355 355 355 356 356 356 355 355 355 354 353 352 351 350 348 347 347 347 347 347 346 346 346 345 345 345 345 345 342 339 337 339 342 342 341 342 342 341 340 343 346 346 346 346 346 345 345 345 345 347 349 343 335 335 335 338 343 344 343 343 345 346 346 346 346 346 347 347 347 347 346 344 343 343 344
342 347 354 352 345 348 353 349 352 355 357 365 367 367 367 362 358 357 357 359 356 353 353 354 354 354 356 356 355 356 356 353 353 353 352 351 350 348 347 347 347 347 346 346 345 343 344 344 344 345 343 340 337 340 343 341 342 344 343 343 342 341 345 345 345 345 345 346 345 345 346 348 349 343 335 333 334 338 342 342 342 343 345 345 345 345 345 346 346 346 346 345 346 345 343 343 344
342 344 347 346 344 347 348 347 348 349 355 361 363 368 367 362 359 357 357 358 356 354 353 354 354 354 355 356 356 357 356 354 353 353 353 352 350 348 348 347 347 347 346 345 344 343 343 344 344 345 344 341 338 341 344 341 342 345 344 345 344 342 344 345 345 346 345 345 346 346 347 348 349 342 333 332 336 340 342 342 342 343 344 343 343 343 345 345 344 344 345 344 345 345 344 344 344
340 343 342 341 346 348 345 348 346 344 358 363 361 366 365 362 360 357 357 357 356 355 355 354 355 355 356 356 356 357 357 355 354 355 355 353 351 349 348 347 347 347 346 345 344 343 344 344 344 345 343 341 339 340 344 341 342 346 345 345 345 342 342 345 345 347 346 345 346 347 347 348 348 342 334 333 338 342 342 343 342 341 342 342 343 343 344 344 344 344 344 344 343 344 345 346 345
340 344 340 339 347 345 342 350 351 349 361 366 363 365 364 363 361 359 357 356 356 356 356 356 356 357 356 356 357 357 357 355 354 355 356 353 352 350 348 348 347 346 346 345 344 344 344 344 345 344 343 342 339 339 341 342 343 346 345 344 344 341 342 345 346 348 348 346 346 346 347 348 346 340 336 337 339 342 343 343 342 342 342 342 343 343 343 344 345 346 347 346 344 344 345 346 346
341 344 339 340 345 344 342 348 356 360 362 365 365 361 361 364 363 361 358 355 356 356 356 356 356 357 357 357 357 357 357 356 354 354 355 353 352 351 349 348 347 347 346 345 345 345 344 344 345 345 343 343 342 340 338 339 342 346 344 343 344 343 342 345 347 347 347 347 346 347 348 346 340 335 335 338 340 341 343 342 342 342 342 342 343 344 345 346 348 348 348 348 347 347 349 350 351
340 344 342 342 344 344 343 344 354 360 356 362 361 349 352 363 364 363 360 358 357 355 355 356 356 357 357 357 357 356 357 356 354 353 354 353 351 352 351 349 347 347 346 345 345 345 344 343 344 345 343 344 344 343 338 336 339 343 344 346 347 344 343 344 347 346 346 347 346 347 348 344 340 336 334 338 341 342 342 342 341 342 342 343 344 345 346 348 347 347 347 348 348 349 350 353 355
336 348 347 343 344 343 343 341 342 347 352 360 355 341 345 355 360 364 362 359 360 356 354 354 355 356 356 357 357 356 357 357 355 353 354 354 353 352 351 349 347 346 346 345 345 345 344 344 344 344 344 344 344 343 339 335 336 340 345 347 348 346 343 343 346 346 346 347 346 348 347 343 342 341 337 338 341 343 342 342 342 341 341 343 343 345 347 347 346 346 347 348 347 348 350 353 356
340 355 348 341 344 341 343 340 335 342 352 353 351 350 353 354 358 364 362 360 361 358 355 354 353 354 355 356 357 356 356 357 356 353 353 354 354 352 351 349 348 346 346 345 345 345 344 344 344 342 343 344 343 342 339 334 335 340 345 347 348 349 346 343 346 348 348 348 348 348 346 341 343 343 341 341 343 344 343 342 343 342 342 344 345 346 347 346 346 347 346 345 345 346 348 352 355
347 354 343 339 342 341 343 340 336 342 343 339 345 350 350 352 359 363 361 362 362 360 357 355 354 354 355 356 356 356 356 356 356 354 353 354 353 352 351 350 348 345 346 345 344 345 344 345 343 341 342 344 343 343 338 333 336 342 344 345 348 351 348 344 346 348 348 348 348 347 344 341 342 344 343 343 343 344 344 343 344 345 345 346 347 347 347 346 346 346 343 341 342 343 347 352 355
344 343 341 343 342 341 342 337 336 336 333 337 344 344 343 349 358 363 362 363 363 361 358 355 355 354 354 355 356 356 356 356 356 354 353 353 353 353 351 350 349 345 345 345 344 344 345 345 343 342 343 344 343 342 337 334 340 345 344 344 347 350 349 346 345 346 347 347 346 346 343 341 342 343 344 345 344 344 344 344 344 345 346 346 347 348 348 347 346 345 343 340 341 344 350 354 350
339 340 342 341 340 345 348 346 343 337 336 344 346 342 341 343 353 361 362 362 363 362 360 356 356 356 355 355 355 356 356 356 356 355 354 353 353 352 351 349 349 346 345 344 343 344 345 345 344 343 343 343 342 341 338 338 343 347 345 344 346 349 349 346 345 345 346 347 347 346 343 341 342 343 343 343 344 345 345 345 345 345 346 347 347 348 348 347 346 345 343 341 344 350 351 347 338
337 344 342 335 340 350 351 354 352 340 340 346 345 342 340 340 353 363 359 360 360 360 361 357 355 356 356 356 355 355 356 356 356 356 354 353 353 351 350 350 349 347 345 344 343 344 345 345 345 344 343 343 341 341 342 341 344 347 345 344 345 347 348 347 346 345 345 347 347 346 343 342 343 343 343 343 343 344 344 345 345 345 346 347 347 348 347 347 346 343 341 344 350 349 340 332 327
334 342 338 331 337 343 343 346 344 339 341 342 340 343 343 346 360 365 358 358 358 357 359 357 355 356 356 356 356 355 356 356 356 356 354 354 353 352 350 350 349 346 344 344 344 344 345 345 345 344 343 343 341 342 345 342 343 345 345 344 344 346 346 346 346 344 345 346 347 346 344 342 344 345 344 344 342 342 342 343 344 345 346 346 348 348 347 346 344 341 344 349 346 336 327 325 327
332 336 335 333 335 335 339 343 337 336 342 341 339 342 341 346 358 364 359 354 354 356 357 357 356 356 356 357 357 356 356 356 356 356 355 354 353 352 350 350 348 345 344 344 344 344 345 344 344 344 343 343 341 343 347 345 343 343 342 342 343 344 345 345 346 346 346 346 346 347 345 343 344 345 345 344 343 343 345 344 345 346 346 347 348 347 346 344 341 343 348 345 333 325 325 327 328
337 340 341 338 338 336 338 342 336 335 340 339 338 340 340 346 355 359 355 349 350 353 355 357 356 356 356 356 356 356 356 356 356 355 355 354 353 352 351 350 348 346 345 345 344 343 344 344 344 344 344 343 341 342 346 348 347 344 339 340 341 342 344 346 349 350 348 346 346 347 347 345 343 342 343 343 342 344 346 346 346 347 348 349 348 346 344 341 341 346 345 333 325 325 326 326 326
337 342 340 337 342 341 337 339 336 333 336 338 337 339 345 354 357 354 352 350 350 351 353 357 356 355 356 355 356 357 356 356 356 355 355 353 353 352 351 350 349 348 346 345 344 344 344 344 344 344 344 343 341 341 344 348 349 345 338 337 339 342 344 347 351 351 348 346 345 343 343 342 341 341 341 342 342 343 345 346 348 347 348 347 345 344 342 340 345 345 335 325 325 327 326 325 325
340 337 336 341 344 339 332 334 339 336 336 338 337 338 344 352 356 356 355 354 353 354 355 356 355 356 356 356 356 356 356 356 356 356 354 352 352 352 352 350 349 349 348 345 344 343 344 343 343 344 344 342 340 339 342 346 348 344 337 336 337 341 346 348 351 351 347 344 342 339 337 339 341 344 344 344 343 343 345 348 347 346 346 345 344 342 339 343 347 338 326 324 327 326 325 325 324
341 334 338 345 342 340 336 333 337 339 337 337 338 338 339 343 350 354 354 356 357 358 358 356 355 356 356 356 356 356 356 356 355 356 354 352 352 352 352 351 350 350 349 346 343 342 343 343 342 342 343 342 339 337 339 344 347 343 337 336 335 338 344 348 350 350 346 342 342 341 341 343 345 345 345 345 344 344 346 346 345 346 346 344 342 338 341 346 342 328 323 326 327 325 325 324 324
340 336 343 347 336 334 335 331 333 335 332 335 337 337 339 343 350 352 351 355 358 359 360 358 356 355 355 356 356 356 356 356 355 356 356 353 352 352 353 351 351 351 349 348 345 342 342 342 341 341 340 341 339 337 338 342 346 344 338 336 335 334 338 344 347 347 342 340 344 344 346 347 346 343 344 344 344 345 346 346 346 346 344 342 339 339 344 343 331 323 325 327 326 325 325 325 326
335 333 338 346 338 331 331 332 334 332 330 335 335 331 338 350 355 355 354 354 356 359 360 359 356 355 356 356 356 356 356 356 356 356 356 355 352 353 353 352 352 351 350 350 348 344 342 341 341 340 340 341 340 338 338 341 346 346 340 337 336 334 335 339 340 338 337 340 344 346 347 348 345 343 343 344 344 345 345 345 345 344 343 341 339 342 344 334 322 323 327 326 325 325 325 326 327
331 331 331 334 333 331 330 330 332 332 335 340 337 330 337 353 353 350 353 352 353 359 360 357 356 355 356 356 356 356 357 356 356 356 356 356 353 353 353 352 352 351 350 350 349 346 343 341 341 340 340 341 341 340 339 340 345 346 341 337 336 335 335 333 333 335 338 341 344 345 347 347 344 343 342 341 343 344 344 344 343 344 344 341 341 345 338 324 321 326 326 325 325 325 326 327 328
332 334 332 330 332 331 328 328 332 335 337 339 338 332 335 348 349 345 352 354 352 355 357 355 356 355 355 357 356 356 357 356 356 356 356 356 354 353 353 353 352 351 351 350 349 347 344 342 341 341 341 342 344 343 341 340 343 343 340 337 335 335 332 331 336 343 344 345 345 345 345 345 344 343 341 341 343 343 343 344 344 345 342 340 344 342 328 320 323 326 326 326 325 325 327 328 328
Wind_Speed
26 25 23 20 17 12 7 5 2 1 1 1 2 1 1 1 1 2 3 4 2 4 6 5 2 6 4 4 8 7 7 8 5 4 3 10 30 38 32 33 35 35 34 33 32 30 28 27 28 31 31 30 28 25 25 25 26 26 24 22 21 20 18 18 17 17 16 15 14 13 11 10 8 7 5 4 3 2 2 2 1 1 1 2 3 3 2 2 3 3 5 6 7 7 8 8 8
24 22 19 14 10 6 2 2 1 0 1 2 2 1 1 1 1 2 2 1 1 3 5 2 4 7 6 10 10 8 8 3 6 9 12 26 38 36 32 34 35 35 34 33 32 31 29 28 29 31 31 30 27 25 25 25 26 25 24 22 21 20 18 18 17 16 15 14 12 11 10 8 7 7 6 5 4 4 3 2 2 1 1 3 3 1 1 2 3 5 7 8 9 9 10 9 8
18 15 13 10 6 3 1 1 1 1 1 2 2 1 0 0 2 1 1 1 2 4 3 4 7 7 6 8 5 5 5 4 14 20 25 36 40 34 34 34 34 35 34 33 33 31 30 29 29 30 31 29 27 25 25 25 25 24 23 22 20 19 18 17 16 15 13 12 11 10 9 8 7 6 5 4 3 2 2 1 1 1 2 2 1 2 3 4 5 7 9 9 9 10 9 8 8
12 11 8 6 3 0 1 1 1 1 1 1 3 1 1 1 1 0 1 2 3 2 1 3 5 5 7 7 6 8 7 9 20 29 34 38 37 36 35 34 33 33 33 33 33 32 30 29 29 30 30 28 27 25 25 25 24 23 22 21 19 18 17 17 15 13 12 11 10 9 8 7 7 6 5 3 3 2 2 1 0 0 1 1 2 4 5 6 7 8 9 9 9 8 8 7 7
9 8 4 2 1 1 1 0 1 1 2 1 2 1 0 0 1 0 1 2 3 1 0 2 3 4 8 7 5 7 11 15 20 32 40 36 34 36 36 34 33 33 33 33 33 32 30 29 29 29 28 27 26 25 25 24 24 23 21 20 19 18 17 16 14 12 11 10 10 9 9 8 7 6 5 4 3 3 2 1 0 0 1 2 4 5 6 7 8 9 9 8 7 7 6 6 7
6 4 1 0 0 2 0 1 2 2 2 2 2 2 1 2 1 2 3 2 3 1 1 1 3 7 8 8 9 13 17 17 19 31 40 36 34 36 36 34 32 33 33 33 33 32 30 29 28 28 27 27 26 25 24 23 23 22 21 20 19 18 16 15 14 12 11 10 10 9 9 8 6 5 3 2 2 1 0 1 2 2 3 4 5 5 6 7 8 8 7 6 6 6 5 6 7
4 3 1 1 1 1 0 1 3 3 1 2 1 2 2 2 2 3 2 2 1 1 1 3 8 9 6 6 10 14 18 16 21 32 37 35 35 36 35 34 32 33 33 33 33 32 31 29 28 27 27 26 25 24 23 22 21 21 20 19 18 17 16 14 13 12 11 10 10 9 8 7 5 3 1 1 1 1 1 2 2 3 4 4 4 5 6 7 6 6 5 5 5 4 5 6 6
2 2 2 1 1 1 1 2 3 1 1 1 1 3 1 1 3 3 2 3 0 0 2 5 8 7 4 5 6 11 19 16 22 32 33 33 35 35 35 34 32 33 33 33 32 31 30 29 28 27 26 25 24 23 22 21 20 19 18 18 17 16 15 14 13 12 11 10 9 8 7 6 5 3 2 2 3 2 2 2 3 4 4 4 4 4 6 5 5 4 4 4 3 4 5 5 6
3 3 2 1 1 1 2 3 3 1 1 1 3 3 0 4 5 3 2 3 1 2 2 3 5 6 6 10 9 13 20 17 23 31 30 32 34 36 36 34 32 34 34 33 32 31 30 29 28 27 26 25 24 23 22 20 19 18 17 17 16 15 14 13 12 11 10 10 9 8 7 6 5 4 4 4 4 4 3 3 4 4 3 3 4 4 4 3 3 4 4 3 3 3 4 5 6
4 4 1 1 1 2 3 3 3 2 2 2 4 4 2 5 7 4 3 2 3 4 3 4 7 10 10 10 11 19 24 20 26 30 29 31 34 36 36 33 31 33 34 33 32 30 31 29 28 26 25 24 23 22 21 20 19 18 17 16 16 15 14 13 12 11 10 10 9 8 8 7 6 6 5 5 5 4 4 4 4 3 3 3 4 3 3 2 3 3 3 2 2 2 3 5 6
4 3 2 1 2 2 2 3 3 3 3 3 3 2 3 3 8 5 3 3 4 4 5 6 8 13 12 8 10 24 30 26 29 30 28 29 34 36 35 33 31 32 33 33 31 29 30 29 27 25 24 23 22 20 20 18 18 17 17 17 16 15 14 14 12 11 11 11 11 10 9 8 7 7 6 6 6 5 5 4 3 3 3 4 3 2 1 2 3 3 3 2 2 2 3 4 6
3 2 2 2 2 1 2 3 4 5 3 3 2 2 3 3 5 6 7 6 6 4 5 6 8 13 9 6 11 24 32 30 31 29 26 29 35 36 34 34 32 32 32 32 31 29 29 28 26 25 23 22 21 20 19 17 16 16 16 16 16 15 14 14 13 13 12 12 11 10 10 9 8 8 8 7 7 6 5 5 3 3 3 2 1 1 2 2 3 3 3 3 2 2 2 3 5
2 1 1 1 2 2 2 3 3 5 4 1 1 4 3 4 4 7 10 8 7 5 4 7 13 12 7 8 15 26 30 30 32 29 28 32 35 35 34 33 32 32 31 31 30 29 28 27 26 25 23 22 21 20 18 17 16 15 15 16 15 15 15 14 13 13 12 12 11 10 10 9 9 9 8 7 7 6 5 4 3 2 2 1 1 1 2 2 3 4 4 3 2 2 2 3 4
4 2 1 1 1 2 3 3 3 4 3 1 2 5 3 1 5 7 8 7 5 6 7 12 15 11 11 12 14 27 30 30 33 30 29 32 33 34 33 32 32 32 30 30 30 29 28 27 26 25 24 23 21 19 18 17 16 15 15 15 15 14 14 14 13 13 12 11 11 11 10 10 9 8 8 7 6 6 5 4 2 0 1 1 1 2 2 3 4 5 5 4 3 3 3 4 4
4 4 1 1 1 2 2 3 3 3 4 1 2 3 3 3 3 5 6 6 3 7 10 13 13 8 12 12 13 29 34 32 33 31 31 31 32 32 30 31 32 32 30 30 29 29 28 27 27 25 24 23 21 19 18 17 16 16 15 15 15 14 14 14 14 13 12 12 11 10 10 9 8 8 7 6 6 5 4 3 1 1 1 1 2 2 3 4 6 6 5 4 3 3 3 4 4
3 2 2 1 1 1 1 2 3 3 4 2 3 2 2 2 4 3 4 5 3 9 10 10 11 8 14 17 21 32 34 34 33 32 34 31 31 29 26 29 32 32 31 30 29 28 28 27 26 25 23 22 21 19 18 18 17 16 16 15 14 14 14 14 14 13 13 12 11 10 9 8 7 7 7 6 5 4 3 2 1 1 1 2 3 3 5 5 6 6 5 4 3 3 3 3 4
4 1 2 2 2 1 1 2 2 2 3 4 6 4 1 1 4 4 3 4 6 12 8 8 9 11 17 20 27 33 33 34 32 33 35 33 31 27 25 28 33 33 31 30 29 28 28 27 25 24 23 21 20 19 19 18 17 16 15 14 13 13 13 13 13 13 12 11 11 9 9 8 7 6 6 5 3 3 2 2 2 2 3 4 4 5 5 6 6 6 6 5 4 3 3 3 4
3 2 2 0 2 3 3 4 4 2 4 5 6 7 4 2 4 5 4 3 10 11 5 9 10 12 18 21 30 34 33 34 34 36 35 34 32 29 27 28 33 33 32 31 29 28 27 26 25 24 23 21 20 19 18 17 16 15 13 12 11 12 12 13 13 12 12 11 10 9 9 8 7 6 5 5 3 3 3 3 4 6 6 6 6 6 6 6 5 5 5 5 4 4 3 4 5
4 1 1 2 4 5 5 6 7 5 7 6 6 8 7 4 6 8 5 4 12 9 4 9 11 15 18 20 31 35 35 36 36 36 35 35 33 31 30 29 32 33 33 32 29 28 26 25 24 23 22 21 20 19 18 16 15 13 11 11 10 11 12 12 12 12 11 10 10 9 8 7 6 6 5 4 3 4 5 6 7 8 9 8 8 7 6 4 3 4 5 6 5 5 5 5 4
5 3 1 4 5 8 12 10 13 15 12 5 6 7 8 7 8 8 5 5 8 8 7 10 12 19 20 21 30 34 36 36 35 36 34 34 32 31 30 29 31 31 32 31 29 28 26 24 23 22 21 20 19 17 16 14 12 11 10 10 11 11 12 12 12 11 11 10 10 8 8 6 6 5 4 4 5 6 7 8 8 8 8 8 7 5 4 3 4 4 6 6 5 5 5 4 4
5 6 3 4 7 6 15 15 16 17 15 10 8 5 7 10 9 8 8 7 4 9 15 15 18 24 23 24 31 34 35 35 34 34 33 32 30 29 27 26 27 27 28 29 28 27 25 23 22 21 20 18 17 15 13 12 11 10 10 11 12 12 12 12 11 11 10 10 9 8 7 6 6 5 5 6 7 8 8 8 8 7 6 7 6 5 4 5 7 7 7 7 6 5 6 5 5
4 6 10 9 9 4 15 18 15 14 15 11 9 6 8 11 9 9 12 9 6 15 21 19 22 27 26 28 33 35 36 36 34 34 33 31 30 28 26 25 24 24 26 27 27 26 24 23 22 21 19 17 15 13 11 10 10 10 11 12 12 12 12 11 11 10 10 9 9 8 7 6 7 8 8 8 8 8 8 8 7 6 5 5 6 6 6 7 8 9 9 9 7 6 7 7 7
4 5 11 13 14 6 16 23 15 16 18 12 10 9 11 11 7 11 15 12 7 15 22 19 22 28 29 29 32 35 36 37 35 34 34 32 30 29 27 27 23 24 27 26 25 24 24 22 21 20 18 17 14 12 11 9 9 10 11 12 12 12 12 11 11 10 10 9 9 8 8 9 10 11 11 9 8 8 7 6 6 6 5 5 6 6 6 8 9 10 10 9 9 7 7 7 7
7 4 7 12 15 14 10 20 18 22 22 14 16 12 12 12 7 11 17 18 10 9 18 19 20 27 30 29 31 34 34 35 36 33 34 32 30 29 28 27 23 22 25 24 23 24 24 22 21 20 19 17 13 11 10 9 9 10 11 12 11 11 11 11 10 10 10 10 9 10 10 11 12 11 10 9 7 7 6 5 4 5 6 7 7 7 7 7 9 10 10 9 9 8 8 8 9
7 5 8 10 12 17 16 11 19 26 20 17 19 10 11 14 8 10 15 22 16 8 15 19 20 26 31 30 30 33 31 34 36 33 33 30 28 28 27 26 22 21 22 21 22 24 23 22 21 20 19 17 13 11 10 9 10 11 12 11 11 11 11 11 10 10 10 10 10 11 11 11 10 9 7 6 5 5 4 4 4 5 7 8 8 8 7 8 9 10 10 9 9 9 10 10 10
6 8 9 10 15 19 20 15 13 23 20 19 16 3 8 14 7 6 12 17 15 12 17 19 20 25 31 31 29 31 30 33 36 33 32 29 27 28 26 26 24 21 20 19 20 22 22 22 21 19 18 15 12 11 9 8 9 10 11 11 11 11 11 11 11 11 11 11 11 12 11 9 8 6 4 3 4 4 4 3 3 6 7 7 6 6 6 7 9 9 9 10 10 11 12 12 11
8 11 13 14 20 23 18 18 13 18 22 20 11 2 9 13 5 4 9 11 12 17 20 19 20 25 31 30 28 30 27 31 35 32 31 29 29 29 28 28 27 23 20 20 19 19 20 21 19 17 16 15 12 10 7 7 8 9 10 11 11 12 11 11 11 11 11 12 12 12 11 9 7 5 4 3 4 3 4 3 3 5 5 5 5 4 5 5 7 8 8 9 10 12 13 13 13
10 11 13 16 18 20 18 16 13 13 15 18 14 7 6 8 3 4 10 13 14 20 21 19 21 25 31 28 27 30 26 28 34 32 31 31 30 30 31 30 29 27 23 21 20 18 19 19 17 15 15 14 11 9 8 7 7 7 9 11 12 12 11 11 11 12 11 12 12 11 10 9 7 4 4 4 3 2 2 2 2 3 3 4 4 4 4 5 7 9 9 10 10 11 14 13 13
12 9 6 11 10 10 14 10 11 12 10 17 18 8 1 5 5 4 13 17 16 21 21 22 23 25 29 25 25 29 26 28 32 31 31 31 29 28 32 32 30 29 25 23 21 20 21 19 18 17 15 14 11 10 9 7 6 6 9 11 11 12 11 11 11 11 10 11 11 10 10 9 8 5 4 4 2 1 1 1 2 3 4 4 3 4 6 7 8 10 10 11 11 12 14 13 12
10 5 2 6 7 5 8 2 9 10 11 20 15 2 4 7 8 5 16 20 17 21 22 24 25 24 27 25 25 27 27 29 29 28 30 30 28 27 31 33 30 27 25 25 24 23 24 22 21 18 16 16 13 11 11 8 6 6 8 10 11 11 10 10 10 9 9 10 10 10 10 11 10 7 5 5 5 5 5 3 1 4 4 4 4 5 7 7 9 11 11 10 11 12 13 14 13
4 3 1 3 2 4 7 1 10 6 9 21 11 1 5 6 7 9 18 21 20 21 20 21 23 24 25 25 26 26 27 31 29 27 29 30 27 26 31 33 31 27 25 26 25 24 26 26 24 19 17 19 15 13 12 9 6 6 9 11 11 11 10 11 10 9 9 10 9 9 11 11 10 8 6 7 8 8 7 3 2 4 4 4 5 5 6 7 9 11 10 11 12 12 14 14 13
1 2 3 2 2 4 8 2 10 7 7 14 7 1 4 4 7 12 18 21 20 19 18 19 21 23 23 22 25 26 27 30 29 28 29 30 27 25 30 33 31 28 25 25 25 25 27 28 26 19 18 20 17 15 14 11 7 7 10 11 11 11 12 12 10 8 8 8 8 8 8 9 9 8 6 8 9 8 6 2 3 3 3 4 4 4 6 8 10 11 11 13 14 14 14 13 12
1 2 3 3 3 3 5 4 9 12 7 7 4 3 2 2 8 14 17 19 19 17 17 20 21 21 21 21 23 24 25 27 28 31 31 30 27 24 28 31 29 27 23 22 26 26 27 29 26 20 20 20 17 16 15 12 9 9 11 12 11 12 13 13 10 8 7 7 7 7 5 5 6 7 6 7 8 6 5 3 2 3 2 3 4 6 7 9 10 12 11 11 13 13 13 13 13
3 1 3 4 4 3 3 5 4 12 10 5 5 3 2 3 9 16 18 19 18 16 17 19 19 20 19 22 23 21 23 26 27 34 33 28 27 24 26 30 28 26 23 22 26 27 28 30 26 22 21 20 19 18 16 13 9 10 12 13 13 13 14 12 9 7 6 6 6 5 4 3 1 3 5 6 8 6 4 3 2 3 2 2 5 7 8 8 10 11 11 10 11 13 13 13 13
3 2 2 4 3 3 5 5 3 11 8 5 6 3 2 5 8 14 17 18 18 16 17 18 19 20 20 22 23 21 23 26 28 35 33 27 28 24 25 30 28 28 26 23 26 27 30 31 27 24 22 21 20 18 17 13 10 10 12 14 14 14 14 12 10 7 4 4 5 3 2 0 3 3 4 6 7 5 3 2 1 2 2 3 4 6 6 6 8 9 11 11 11 12 12 12 13
4 4 4 4 4 4 6 5 6 11 6 5 8 5 5 8 8 11 15 17 16 15 16 17 19 20 21 22 23 21 22 26 29 34 33 28 28 24 24 30 29 29 28 26 28 28 30 30 27 26 22 21 20 18 18 15 12 12 13 15 14 14 14 13 11 8 6 6 5 4 3 2 4 4 4 6 6 4 3 3 1 2 2 2 4 5 5 5 7 9 10 12 12 12 12 13 14
7 5 4 5 4 5 6 5 6 11 6 5 7 5 7 9 8 10 16 16 13 15 15 16 20 20 22 23 22 22 21 25 27 30 31 27 28 25 24 29 29 28 28 28 30 29 29 28 27 27 22 21 21 21 20 17 16 15 14 14 13 13 14 12 11 9 10 9 7 6 4 3 4 3 4 6 4 3 2 2 1 2 1 2 3 4 4 5 8 10 11 12 13 14 15 16 17
10 8 6 6 4 5 8 6 3 10 5 4 6 7 6 8 8 10 15 13 12 17 18 18 21 21 23 23 22 22 21 25 26 26 26 25 27 26 24 28 30 29 29 30 31 31 29 27 27 25 22 22 22 22 21 18 18 16 13 15 12 11 13 11 10 9 11 11 8 6 5 5 5 4 4 5 3 2 1 1 1 1 1 3 3 3 5 6 8 11 13 14 15 16 18 18 18
9 8 5 5 4 4 7 5 2 7 3 3 7 7 5 6 8 10 14 14 14 20 22 22 24 23 24 25 24 24 23 26 28 25 25 26 28 26 26 28 29 29 29 31 33 33 31 28 27 25 23 23 22 23 21 19 19 15 14 15 11 11 13 12 11 8 10 11 10 7 5 6 7 5 3 5 3 2 1 2 1 1 3 4 4 4 5 7 9 11 14 17 17 17 18 18 18
7 6 4 4 4 2 3 4 1 3 2 4 7 5 3 3 5 7 14 17 15 19 22 22 25 26 27 28 27 27 25 28 31 26 24 28 28 27 28 30 30 29 28 31 35 34 31 30 29 27 26 24 22 22 21 20 19 15 15 15 11 11 13 14 12 9 9 9 10 10 8 8 7 4 2 4 4 3 3 2 1 1 2 3 4 5 6 8 11 13 16 18 18 17 17 19 20
5 6 6 4 5 4 4 2 2 5 5 5 9 6 1 3 6 5 9 12 12 16 18 18 23 25 26 27 27 28 27 29 33 29 25 29 30 27 28 29 31 32 30 32 36 35 31 30 30 28 26 24 21 19 18 20 20 16 17 17 13 12 13 15 14 13 11 9 10 11 8 6 4 1 3 4 4 5 4 2 1 2 2 2 4 6 8 10 12 14 17 18 17 17 18 20 22
3 5 7 7 6 6 5 2 4 5 4 2 5 3 3 4 7 7 6 7 8 13 16 16 20 23 23 25 26 28 27 28 34 33 27 29 30 28 28 28 32 35 32 32 35 34 30 28 28 28 26 24 21 18 16 20 21 18 19 19 16 14 13 16 15 13 13 10 10 10 7 5 1 1 2 3 4 5 4 0 2 1 1 2 4 7 9 10 12 14 16 17 19 20 20 21 21
2 5 6 6 4 4 6 4 2 2 2 5 5 3 2 3 5 7 7 7 7 9 12 15 20 23 23 26 27 28 29 27 32 35 31 30 31 29 29 27 30 36 34 32 34 33 31 28 27 27 25 23 21 17 16 20 21 19 20 19 15 14 13 15 14 10 10 10 10 11 9 6 3 1 1 2 2 2 1 1 2 1 2 3 5 8 9 10 12 14 16 18 21 23 23 22 22
2 7 5 4 3 4 7 6 3 3 1 2 5 4 2 2 5 6 9 8 7 8 10 13 19 24 26 28 29 29 31 29 31 35 34 32 31 31 32 28 29 33 32 33 35 34 32 30 27 25 24 23 21 18 17 21 22 20 21 19 14 13 13 14 12 9 9 9 10 11 10 7 5 4 3 3 2 1 2 2 2 1 3 4 7 10 10 10 12 15 18 22 24 25 26 25 24
5 7 5 5 4 5 7 5 4 3 2 2 4 3 2 3 4 4 7 6 7 10 11 12 17 25 28 30 31 29 31 30 31 35 36 34 32 32 33 29 28 30 31 34 35 33 33 31 27 24 24 23 21 19 18 21 22 20 21 19 15 14 13 13 13 11 11 11 12 13 11 7 6 7 5 4 4 3 2 2 3 3 3 5 9 11 11 12 14 18 22 25 26 26 27 26 25
5 5 4 4 3 4 5 4 4 0 2 4 6 4 2 3 2 4 5 5 9 11 10 12 19 26 29 31 33 31 30 30 31 34 36 35 32 33 34 30 27 29 31 34 33 32 33 31 27 25 24 24 22 20 19 22 23 20 20 20 17 16 15 16 16 14 14 14 14 16 14 10 8 10 8 6 6 6 5 3 3 4 6 9 11 12 12 15 18 22 26 27 27 26 26 26 26
3 1 2 4 5 3 3 3 1 4 1 5 6 5 3 2 3 5 6 6 9 9 8 12 18 24 29 31 34 33 31 31 32 33 35 35 32 33 33 31 28 29 31 33 31 32 34 31 27 25 25 25 23 21 20 23 24 21 21 21 19 17 18 18 17 16 15 13 12 15 16 12 10 11 8 7 7 8 8 7 6 8 10 12 12 13 14 18 22 26 29 27 26 27 27 27 26
2 4 3 3 5 4 4 4 4 4 1 5 5 3 4 1 3 6 9 8 7 9 10 12 16 23 29 31 34 35 33 33 33 32 33 35 33 33 33 32 30 30 32 34 32 33 34 31 27 26 26 26 25 22 21 24 26 23 21 21 21 19 19 20 19 17 15 12 10 12 16 15 12 11 9 7 8 9 10 10 11 13 15 15 14 14 16 20 26 28 27 26 27 28 28 27 25
4 4 4 2 3 4 3 3 2 2 3 5 5 4 3 2 5 6 11 11 9 10 14 18 21 25 30 32 33 35 34 34 35 33 33 35 34 35 34 33 32 32 34 35 33 33 34 32 29 28 28 27 25 24 22 24 27 26 23 23 23 21 19 18 18 17 15 13 11 12 15 16 13 11 10 9 8 10 12 13 14 17 17 16 15 16 19 24 27 27 26 27 29 29 27 25 23
1 1 3 2 1 2 2 2 2 0 4 5 4 4 1 3 4 4 7 10 14 17 20 25 29 32 34 35 35 35 34 34 36 35 35 35 36 36 35 34 34 32 34 35 33 32 33 32 30 29 29 27 26 25 23 23 25 25 24 24 25 22 19 18 16 15 15 14 15 15 17 17 15 13 12 11 11 10 10 10 13 16 16 16 15 17 22 26 26 25 26 28 28 26 23 21 20
2 3 4 3 3 3 2 2 1 2 3 4 2 2 1 2 4 4 3 4 10 18 22 26 29 32 34 33 33 34 34 34 35 36 37 37 37 36 34 34 35 33 33 34 33 31 33 33 30 30 29 27 27 27 25 24 23 23 22 24 25 23 21 19 15 14 15 15 17 19 19 19 17 14 13 13 13 11 9 9 11 13 14 14 16 20 24 25 24 25 27 27 24 22 19 18 18
4 2 4 1 4 5 2 3 4 3 1 2 2 1 3 3 4 4 3 4 3 10 17 20 21 25 28 29 31 33 34 34 34 36 37 38 38 35 34 35 36 34 33 34 33 32 33 33 31 30 29 27 27 28 28 25 22 21 20 23 25 24 23 22 16 15 16 16 17 19 18 18 15 12 12 14 14 14 14 12 11 11 12 14 18 22 23 23 24 26 26 24 21 18 18 19 19
2 0 1 4 5 6 2 3 1 4 3 1 1 2 2 2 3 5 4 3 1 3 11 16 19 24 26 28 31 33 34 34 34 35 36 39 38 35 34 36 36 34 33 31 30 32 34 33 31 30 29 26 26 29 29 26 23 21 20 24 26 26 26 23 19 18 17 14 14 14 14 14 11 10 13 16 16 15 14 13 12 13 14 16 20 22 22 23 25 25 24 20 18 17 18 19 17
4 1 4 2 1 3 2 0 3 4 2 3 3 3 3 1 2 4 4 3 2 3 7 11 16 23 25 27 31 33 35 35 34 34 35 38 39 35 35 38 36 34 34 30 25 29 34 34 31 30 29 26 25 28 29 26 23 22 22 24 26 27 27 24 21 21 17 14 14 13 11 10 9 11 15 17 18 16 15 15 14 14 16 18 21 22 22 23 24 22 20 17 16 17 18 17 14
4 3 4 2 1 1 1 1 0 1 2 2 3 1 2 3 3 3 4 6 5 5 6 8 12 18 22 25 29 31 32 32 33 34 33 36 38 37 36 37 37 35 35 31 24 25 34 37 32 30 29 26 24 26 29 27 24 23 23 24 25 25 25 24 23 21 17 15 15 11 10 11 11 11 12 13 15 15 15 15 14 15 18 21 22 21 21 22 20 18 15 14 15 16 16 13 12
1 2 1 2 3 3 2 1 2 2 2 2 1 0 2 5 5 5 8 9 7 7 7 8 12 18 23 25 27 30 30 31 33 33 33 36 38 38 37 37 38 36 35 33 25 22 31 38 35 32 30 26 23 24 27 26 24 24 23 24 24 23 23 22 21 19 16 16 14 11 13 15 12 9 11 11 12 13 14 15 16 18 20 21 21 19 20 19 16 14 13 13 15 14 13 11 13
1 2 3 2 2 2 1 2 2 3 3 2 2 2 4 5 4 7 10 9 8 11 10 8 12 18 22 25 28 30 31 32 34 33 33 36 38 38 38 37 37 37 35 32 26 21 28 38 39 34 30 25 23 24 26 26 24 24 24 24 24 23 22 21 19 17 15 14 13 13 16 16 13 11 12 13 14 15 16 16 18 19 19 19 18 17 17 16 13 12 12 13 13 12 10 12 14
6 4 4 4 4 2 1 3 3 2 4 3 4 3 6 5 4 6 8 7 7 11 10 8 13 19 21 24 28 30 31 34 35 33 32 36 38 37 37 37 35 35 34 31 26 22 27 38 40 34 29 24 21 21 24 25 24 24 25 24 23 22 21 21 20 17 14 12 12 14 16 15 15 15 15 16 17 17 16 16 18 18 18 17 16 16 15 13 12 11 11 11 11 10 10 12 14
Wind_Direction
123 124 125 127 130 130 130 136 149 231 178 249 251 242 257 171 136 187 201 226 183 120 151 209 221 127 135 126 123 95 96 150 163 154 166 153 156 160 163 165 163 163 164 162 161 159 162 163 164 167 168 168 164 161 159 160 163 167 169 167 163 159 156 154 152 151 151 151 153 155 159 162 163 167 167 168 168 178 188 193 195 157 136 88 72 63 44 15 5 7 8 2 355 353 351 347 350
120 124 126 128 131 126 131 141 102 288 230 275 251 185 305 42 211 235 208 224 176 132 145 170 109 123 131 114 108 82 71 124 160 131 128 146 153 160 163 163 163 162 163 163 163 161 163 163 163 165 167 167 164 162 160 159 161 166 169 167 165 162 160 159 156 155 155 156 160 164 167 170 173 176 173 172 175 176 172 162 147 130 100 74 70 52 8 14 7 1 0 358 354 352 351 351 358
120 126 129 133 138 129 136 126 105 261 270 283 265 211 28 322 249 250 194 255 166 142 110 96 104 107 105 95 80 91 84 113 143 130 131 150 155 160 163 163 163 162 163 164 165 163 162 161 162 163 166 166 165 163 162 162 163 166 168 167 166 165 165 164 162 162 162 165 169 172 174 178 181 178 171 169 164 155 125 92 46 48 71 68 40 7 6 8 1 357 357 354 351 351 351 353 2
121 127 125 127 152 174 98 132 174 196 245 270 277 231 173 250 253 79 182 232 174 153 70 93 90 79 81 87 82 94 109 126 140 139 143 157 159 158 162 163 164 162 163 165 165 163 161 160 161 162 164 166 166 166 164 164 166 168 169 168 167 167 167 167 169 169 170 173 174 176 178 181 183 179 172 170 165 160 150 153 137 82 105 33 5 5 1 358 356 355 353 349 349 351 352 354 0
118 124 121 105 151 279 95 242 199 196 229 204 270 264 144 339 266 357 95 195 195 205 89 93 71 94 84 76 79 100 125 130 139 144 149 160 160 157 161 163 164 163 164 165 165 163 160 159 159 161 163 165 166 166 165 165 167 169 169 169 168 168 170 172 174 176 177 179 179 177 178 179 182 184 180 180 173 163 161 162 86 42 10 2 2 359 355 352 351 349 348 349 351 355 354 352 354
109 107 108 79 254 277 140 311 282 256 246 161 245 305 44 22 332 39 76 192 201 145 68 105 127 116 82 67 93 120 132 134 143 150 153 158 158 158 161 163 163 163 164 164 163 162 160 159 160 161 163 164 165 166 166 166 166 168 169 170 170 172 174 176 178 180 183 183 182 179 179 182 184 188 187 183 158 134 98 354 336 341 347 348 350 349 346 345 344 348 353 357 359 360 353 345 348
98 70 48 351 310 287 168 288 274 266 290 145 255 318 15 8 31 71 82 232 172 76 48 124 135 111 87 95 107 124 133 139 153 157 156 155 157 160 162 163 163 163 163 162 163 163 162 161 161 162 163 164 165 165 166 167 168 169 170 172 174 176 178 181 183 184 187 186 185 184 185 188 192 201 212 200 181 211 282 310 318 324 326 328 334 337 338 341 345 356 6 4 2 358 345 338 344
63 31 51 44 357 339 4 287 278 249 305 140 302 318 324 24 122 121 211 248 144 173 93 134 141 101 98 121 99 126 138 150 159 160 159 155 158 161 163 163 163 164 163 162 163 164 163 162 163 164 164 164 165 166 167 168 170 172 173 176 178 180 183 185 188 189 189 189 189 190 194 202 212 223 225 209 212 235 267 296 306 310 311 318 325 331 335 341 353 10 11 359 354 349 338 336 348
40 24 43 48 55 344 343 307 302 250 285 337 321 317 117 148 150 156 237 270 185 143 106 148 132 106 117 100 83 124 142 160 162 160 160 157 159 162 164 166 165 164 163 162 164 166 164 164 166 166 166 166 167 169 170 171 173 175 176 179 181 183 186 188 189 190 190 191 193 198 208 218 226 227 224 220 229 247 266 282 290 299 304 313 318 329 336 347 5 12 8 357 348 343 341 346 359
47 40 37 70 71 4 342 317 311 275 286 318 305 307 20 128 148 174 209 223 176 135 115 137 107 110 116 90 89 122 138 158 160 159 159 157 161 163 165 167 167 164 163 164 166 168 166 166 168 167 168 168 170 171 173 174 176 178 179 181 183 185 186 188 189 190 191 193 198 205 216 223 226 223 223 229 238 248 257 267 276 288 298 308 318 331 344 8 12 15 18 16 1 350 2 7 14
45 36 16 30 42 22 327 307 294 283 294 304 291 319 359 122 144 161 194 200 171 141 129 135 105 108 108 85 100 126 140 155 159 157 156 159 163 164 165 167 167 164 163 165 168 169 167 168 169 169 169 170 171 173 175 178 180 182 184 186 187 188 189 190 191 193 195 199 204 210 217 219 220 220 224 230 237 244 250 258 262 278 298 312 323 339 6 18 19 37 49 47 25 8 21 26 28
50 353 15 52 16 328 266 287 282 291 301 299 290 11 14 142 150 155 176 188 163 146 140 140 128 117 102 82 111 132 142 152 157 157 156 161 163 165 167 167 166 164 164 165 167 169 168 168 169 170 171 173 174 175 178 180 184 186 188 191 192 193 194 196 197 199 202 206 209 212 213 215 217 220 226 231 238 245 248 250 257 283 306 324 341 17 26 33 45 67 73 69 42 18 26 35 40
81 10 59 76 330 308 305 286 296 312 305 267 270 327 358 151 185 178 168 167 153 145 140 144 139 120 99 113 129 139 144 152 156 154 154 158 161 166 168 167 167 166 165 164 166 168 167 168 169 170 173 175 176 177 179 180 182 185 187 190 191 193 195 199 201 203 206 208 211 212 213 216 220 223 229 235 241 242 245 249 261 290 324 6 43 44 35 54 78 91 93 88 62 30 19 22 40
112 112 127 50 319 317 332 302 319 324 295 280 300 319 329 196 196 186 160 146 154 153 142 149 141 112 115 125 138 148 149 156 155 147 148 155 160 166 169 168 168 168 167 166 167 168 167 169 170 172 175 176 177 177 178 180 180 180 181 183 185 189 193 198 202 205 207 209 213 215 219 222 225 230 232 235 236 237 242 243 243 335 53 66 60 49 65 89 99 103 100 91 63 29 14 20 30
128 112 132 99 12 333 328 295 319 309 290 316 325 328 323 295 210 187 159 145 174 162 148 153 146 120 143 147 157 158 155 157 155 149 150 155 162 168 169 167 169 170 169 169 170 170 170 172 173 174 176 176 176 176 177 179 179 179 178 181 186 190 194 198 201 204 206 210 213 215 220 223 226 228 226 225 225 227 225 211 189 104 80 63 67 83 101 105 104 101 92 79 53 34 22 20 22
169 109 104 101 87 6 296 291 325 293 281 287 290 306 337 290 196 198 171 162 172 160 153 159 154 134 151 153 158 161 158 156 154 155 157 156 162 167 165 166 171 171 172 173 173 173 174 175 175 175 175 176 177 176 177 179 181 181 181 185 191 195 198 201 202 203 205 206 209 212 215 217 219 218 213 209 208 201 182 172 164 109 93 84 91 101 104 103 100 92 78 64 48 49 38 19 23
190 112 88 71 119 173 220 224 264 273 277 285 276 246 261 271 193 200 191 194 167 160 158 165 160 138 141 143 153 158 156 155 154 157 158 157 161 163 163 167 171 173 175 176 176 176 176 177 176 175 175 177 177 177 179 182 183 182 185 190 194 199 201 202 202 203 204 206 209 211 212 210 206 203 200 192 184 177 164 143 124 95 90 90 92 95 95 99 95 84 67 57 47 41 30 12 9
181 69 86 89 198 186 188 207 219 291 287 257 251 233 223 219 205 178 152 171 158 162 175 167 167 147 137 138 150 155 154 156 157 159 159 159 162 162 165 170 173 176 178 179 180 179 179 179 177 176 176 177 177 179 182 184 185 185 186 191 195 200 202 202 203 203 203 204 205 204 200 195 189 186 184 182 178 159 128 105 97 85 85 84 85 86 85 92 89 76 57 47 38 22 3 351 351
194 104 108 219 207 146 152 240 218 216 259 237 229 230 228 232 196 173 149 147 156 163 189 168 175 162 144 142 153 156 157 158 160 162 161 163 165 166 169 170 173 178 181 181 181 182 183 181 179 178 177 177 179 181 184 186 188 187 185 189 193 194 195 194 193 193 191 189 189 186 181 179 179 180 173 165 151 125 105 94 93 86 85 81 80 81 77 82 75 53 37 31 27 19 4 355 354
206 170 199 236 218 139 147 227 231 217 241 235 214 212 224 234 186 172 157 148 169 182 180 172 184 175 153 146 157 158 158 159 161 164 163 164 167 170 172 171 174 179 181 182 183 185 185 181 179 177 178 179 180 183 186 189 189 188 185 183 183 181 180 178 176 178 177 178 177 173 168 170 171 169 159 143 123 111 97 88 91 90 86 78 76 77 69 59 46 32 23 22 21 23 27 23 15
182 170 224 219 212 152 153 207 235 224 229 208 189 176 208 220 191 178 158 144 205 215 191 181 183 175 158 148 158 162 161 163 165 168 166 166 170 171 173 175 178 179 179 183 185 185 182 178 175 176 181 182 183 186 188 190 189 188 185 179 177 175 173 170 170 171 172 173 171 167 160 161 158 142 132 127 112 99 90 86 85 82 78 70 64 58 51 38 30 28 27 29 33 41 46 47 37
181 208 241 239 225 165 145 187 224 216 212 197 176 164 182 193 203 200 176 170 213 205 194 186 181 174 162 153 157 164 166 167 169 171 171 170 174 172 171 176 177 177 180 182 183 182 178 175 176 179 183 185 186 186 187 190 190 190 185 180 177 175 174 173 173 171 170 168 165 160 151 142 131 118 114 114 106 92 84 83 75 62 55 49 44 36 32 28 22 24 28 30 37 47 44 40 34
220 250 244 255 252 228 148 170 212 215 200 192 173 173 172 170 211 212 196 203 205 198 195 187 180 173 167 160 158 163 167 171 171 173 174 173 176 174 173 177 176 178 181 182 179 176 176 177 180 184 184 186 184 182 186 187 187 189 184 182 180 178 179 177 175 172 169 165 157 149 142 131 119 111 111 110 101 90 82 75 58 43 36 28 29 25 20 24 25 24 25 28 31 31 28 23 17
219 276 257 267 267 263 205 171 191 205 196 177 161 165 173 172 197 203 209 212 195 194 197 188 179 175 172 167 162 163 169 174 174 175 177 177 178 178 178 178 177 181 181 180 177 175 179 182 185 189 186 184 182 181 186 185 184 185 184 186 184 182 182 177 174 173 168 160 152 145 141 135 124 114 113 110 98 88 80 68 44 27 26 22 20 19 18 25 30 28 28 28 23 15 9 3 356
219 245 258 270 272 275 275 215 181 189 190 161 155 166 185 185 184 186 212 213 203 204 195 188 182 179 180 175 169 167 170 176 177 177 178 179 180 181 181 178 180 186 184 181 179 180 184 185 189 193 186 179 180 180 179 180 184 185 187 188 186 184 180 175 174 172 164 155 149 143 143 138 129 118 114 115 108 92 68 57 35 13 14 16 12 13 21 26 26 25 27 24 14 8 4 2 3
215 230 256 271 278 280 285 272 200 178 176 157 152 180 187 184 185 195 219 214 209 201 186 186 184 185 184 180 177 172 170 174 178 179 177 180 181 181 180 178 183 189 188 187 184 183 187 190 194 196 186 174 174 177 173 177 185 186 188 187 187 184 176 175 176 171 161 155 149 145 149 145 132 122 112 126 134 98 52 38 7 357 360 9 13 19 21 15 15 15 13 10 4 4 4 2 3
239 258 280 277 281 285 281 276 240 174 169 167 151 142 178 174 176 223 222 200 188 181 179 184 185 188 185 181 182 179 175 173 175 178 177 181 182 180 180 181 186 188 190 193 189 185 190 192 193 196 189 176 175 180 180 184 185 185 187 186 187 184 177 177 176 170 162 157 153 153 158 151 140 124 92 105 129 96 52 37 347 332 333 346 358 9 5 356 8 13 6 0 359 2 360 355 350
266 274 295 282 287 292 279 272 240 176 174 180 142 106 163 166 195 237 196 173 168 173 176 184 187 188 185 184 184 182 182 175 173 176 177 180 181 181 183 184 186 187 190 195 192 190 190 188 189 199 195 184 186 187 182 183 181 181 187 187 187 185 179 177 173 168 164 163 164 166 167 158 149 131 93 95 103 88 51 32 320 295 322 340 340 339 349 4 21 23 13 1 355 354 350 351 348
282 278 300 287 307 305 277 273 213 178 173 169 131 89 209 192 239 231 176 170 169 174 175 179 186 189 188 188 185 185 188 178 172 177 179 180 182 185 185 185 186 186 190 195 194 193 192 187 190 202 202 195 200 196 186 184 182 184 188 186 187 184 177 175 171 163 167 173 176 180 180 170 161 153 136 127 120 206 266 296 280 309 338 354 2 354 3 12 11 6 1 352 342 339 341 345 342
286 278 220 281 332 314 274 278 173 167 161 162 138 66 261 229 241 191 171 173 169 175 174 174 180 185 188 188 187 188 190 181 174 176 181 183 186 189 186 184 186 187 190 195 194 194 195 192 193 204 206 202 208 202 193 190 192 197 195 191 190 183 173 174 170 163 172 178 178 182 183 177 178 179 167 166 185 218 244 254 325 5 6 11 7 0 9 5 353 351 350 344 336 333 335 337 332
276 296 258 267 317 277 282 128 142 128 168 169 143 334 240 237 228 176 172 175 171 175 173 172 175 178 184 189 189 189 188 186 182 177 179 185 189 194 191 187 188 189 191 195 195 194 196 195 195 203 207 206 209 202 197 199 207 211 204 199 192 181 172 174 169 162 170 174 175 183 186 183 192 203 191 192 203 212 227 230 67 55 56 38 16 8 11 360 347 348 344 337 332 329 328 328 329
243 287 303 289 207 259 300 257 160 141 188 183 146 164 239 242 206 179 174 176 177 177 171 173 176 173 178 186 189 190 188 190 191 182 180 187 189 189 191 189 189 191 192 195 196 194 196 196 197 202 204 209 210 202 202 208 220 224 210 201 191 180 173 171 162 150 152 158 163 174 187 192 207 224 217 217 218 209 206 178 79 63 52 27 16 8 0 353 347 344 339 332 327 327 328 326 327
295 184 255 272 233 274 319 287 189 157 156 199 178 157 214 234 188 179 174 174 180 180 172 176 179 172 173 182 188 192 191 191 196 190 185 190 188 184 188 188 190 192 192 195 195 195 196 196 199 201 202 209 209 203 207 211 222 230 211 194 184 177 174 168 154 142 134 125 131 138 147 174 212 236 236 226 216 206 193 154 87 74 57 12 2 1 354 349 346 346 347 339 328 332 335 331 331
304 226 243 254 240 268 294 304 227 157 150 193 190 167 182 174 169 175 177 174 176 182 178 179 180 174 177 184 186 193 196 194 196 193 190 192 190 189 192 190 192 195 193 194 197 197 197 197 201 198 198 206 203 201 209 211 222 229 207 183 171 168 168 164 156 152 141 125 130 130 124 124 227 262 246 223 209 207 198 163 109 109 103 24 9 10 5 353 344 343 348 345 335 337 338 337 337
225 211 232 274 270 260 244 274 207 163 164 177 183 204 157 136 159 177 183 178 174 182 184 183 183 181 182 184 183 188 200 201 196 194 194 193 191 195 198 193 194 196 193 195 198 198 196 199 201 195 194 201 199 202 208 207 214 213 191 170 164 166 166 171 175 172 174 173 166 167 175 162 350 317 252 222 208 212 222 211 129 125 102 30 1 357 358 349 343 340 340 342 342 342 340 338 334
221 220 203 237 262 268 248 247 195 166 158 180 189 195 146 147 167 179 187 185 178 181 185 187 189 190 187 185 186 187 197 203 198 194 197 197 196 198 196 193 194 194 193 196 197 196 196 199 199 194 195 198 198 203 204 202 203 195 181 169 167 172 171 177 187 190 212 230 226 225 231 261 321 312 240 223 213 219 253 258 230 124 94 3 324 323 336 347 351 350 344 341 342 343 343 340 332
259 260 236 240 253 276 268 261 201 160 153 211 193 158 147 161 171 179 186 187 183 178 182 190 192 195 192 187 192 192 195 201 197 196 199 200 200 199 194 191 193 195 195 196 196 194 196 199 197 195 196 197 199 201 201 206 202 191 188 184 175 174 175 182 197 209 222 232 235 233 240 264 303 301 220 216 216 232 276 272 244 137 145 311 305 311 344 2 356 351 346 340 335 330 334 341 337
252 253 257 265 257 263 270 281 192 155 157 214 163 138 158 168 167 173 180 185 193 186 183 188 190 194 194 190 193 195 196 195 191 194 201 203 202 201 197 192 193 197 196 194 194 194 196 199 197 197 200 201 202 201 205 214 205 195 199 197 187 183 187 197 211 223 231 228 217 219 242 257 288 298 211 195 196 214 314 350 203 195 300 321 325 332 356 4 354 347 341 337 330 320 322 332 334
243 241 242 265 263 269 287 310 139 151 163 185 146 139 163 169 163 167 179 190 198 193 192 190 186 187 192 193 194 193 193 193 190 193 200 201 200 199 196 193 194 197 198 196 194 195 197 199 200 202 205 204 204 205 211 215 204 199 204 200 194 193 195 201 203 212 229 225 212 216 244 257 284 300 208 185 188 183 139 118 148 277 335 339 337 342 354 352 342 340 336 331 326 318 317 321 324
237 222 200 244 258 245 287 313 80 92 72 139 123 104 120 147 157 172 187 194 196 196 199 196 189 188 191 193 193 191 191 194 194 195 198 198 195 194 194 194 197 199 200 196 194 195 197 199 203 206 207 207 208 211 214 214 204 196 200 200 198 198 196 196 194 200 217 220 217 225 244 264 287 296 206 203 206 194 183 167 128 28 349 334 333 340 344 344 340 336 331 327 325 322 319 315 318
250 219 195 216 245 236 242 238 109 40 30 107 105 80 29 169 175 197 192 191 195 193 196 201 198 195 194 194 194 193 193 195 196 195 197 197 193 192 194 196 199 201 200 195 194 196 197 200 204 206 207 208 212 216 215 212 203 194 196 200 205 209 204 198 195 195 202 212 219 225 244 267 297 298 207 228 227 224 223 199 90 42 4 328 330 334 334 340 339 330 324 324 325 324 319 316 318
295 252 214 204 224 255 260 198 114 57 355 224 127 105 270 212 189 200 190 185 190 188 191 201 204 201 198 198 197 197 197 199 199 196 194 195 196 196 195 197 199 198 198 197 196 198 199 201 203 205 207 209 215 218 216 211 202 192 194 199 205 209 200 192 188 188 199 214 217 221 241 252 295 35 222 232 234 232 229 162 42 48 59 22 347 339 334 331 324 318 317 318 319 320 318 318 318
332 265 234 214 215 262 275 254 156 113 242 228 183 160 240 232 215 201 186 187 186 185 193 200 203 202 201 200 199 199 200 202 201 198 195 195 199 200 194 194 196 195 197 200 199 200 201 202 202 204 207 211 216 217 215 209 198 188 193 198 205 208 199 190 185 189 208 216 211 218 239 239 231 293 253 228 228 233 255 359 14 43 63 30 357 339 325 317 314 314 314 313 314 316 317 318 317
244 249 243 255 274 283 276 276 252 203 201 206 189 166 117 212 241 197 174 182 188 190 198 200 201 203 202 201 200 199 201 204 202 200 199 198 200 198 193 194 196 196 199 200 199 199 200 201 202 205 208 212 216 217 217 208 195 186 192 198 207 215 209 197 190 194 209 215 215 228 240 237 236 249 261 255 243 348 11 357 6 33 34 10 346 329 310 304 310 312 312 312 313 315 315 315 315
231 246 251 258 255 256 262 274 267 213 98 332 232 173 100 263 260 165 162 180 201 204 201 198 199 201 202 202 201 200 201 205 204 201 201 202 201 198 196 197 197 197 198 198 198 199 199 201 203 205 209 212 216 218 216 205 194 189 194 200 208 214 208 200 201 201 205 214 225 237 242 239 243 242 248 264 263 290 327 15 33 26 3 332 324 317 305 303 308 310 314 317 316 315 313 312 313
245 249 269 290 279 269 277 269 274 339 97 266 242 176 150 269 256 152 164 206 220 211 200 200 199 199 201 202 202 201 200 201 202 202 202 202 203 202 199 199 199 197 196 197 197 198 199 201 203 205 209 212 215 216 212 201 195 196 201 204 206 207 204 204 210 209 208 214 226 235 234 234 244 242 245 258 265 279 289 310 353 343 316 307 306 300 296 303 309 314 319 320 318 315 311 311 313
267 347 11 352 328 308 321 289 323 58 32 264 240 183 145 276 257 181 181 215 215 199 191 198 199 198 200 201 202 201 199 199 198 200 202 202 204 204 200 199 201 198 196 197 198 197 198 200 202 206 211 214 215 214 210 200 197 203 206 207 208 205 204 209 216 215 213 222 235 233 226 230 244 240 242 258 265 277 285 289 293 291 292 294 293 287 291 304 311 316 320 319 317 314 312 314 315
20 41 51 8 328 348 8 349 41 80 257 265 240 172 119 189 255 207 207 230 213 185 189 193 193 197 198 199 200 199 199 199 197 197 200 200 202 202 200 201 203 200 197 197 197 197 198 200 203 206 210 214 215 212 209 203 201 205 207 210 212 210 209 214 220 219 215 226 243 231 221 227 237 231 234 257 270 279 285 286 279 273 278 284 285 285 293 305 312 316 318 317 316 315 315 317 317
35 49 54 27 326 358 6 330 15 110 245 251 205 145 104 231 251 214 211 227 221 198 195 192 190 193 195 197 197 197 197 197 195 195 197 198 200 200 199 201 202 200 196 195 197 198 198 200 203 206 208 212 213 210 209 207 205 206 207 210 213 215 214 211 213 215 211 219 233 229 225 229 234 233 240 257 278 291 288 281 270 266 271 276 279 285 297 308 313 317 317 317 317 317 319 321 321
38 107 119 132 125 37 321 296 347 223 264 263 199 132 51 284 276 226 206 221 222 212 203 197 193 192 193 195 194 194 195 196 195 194 195 198 200 199 198 199 200 197 193 194 198 200 199 201 203 206 207 209 212 210 208 210 211 212 212 211 212 214 210 204 208 218 217 218 223 226 229 231 237 246 254 262 273 283 277 261 255 257 262 265 274 290 303 311 314 317 318 318 319 320 324 328 328
232 201 147 137 150 149 207 224 187 206 259 297 8 74 155 223 269 245 235 254 228 217 210 201 196 193 192 192 191 192 193 195 196 196 196 198 199 198 197 198 198 195 191 194 200 201 201 202 204 206 206 207 210 210 209 212 215 218 216 212 211 209 205 204 211 223 222 221 225 229 230 229 233 243 252 258 262 263 256 247 243 243 250 262 282 298 307 312 315 317 318 319 322 327 334 340 340
264 224 101 121 189 157 171 207 186 167 171 327 349 321 205 200 264 278 311 311 247 210 200 190 187 186 184 184 187 190 192 193 194 195 197 197 197 197 197 197 197 195 193 195 200 202 202 203 205 207 208 209 211 211 211 213 215 216 214 210 207 203 202 206 210 217 218 220 227 231 229 226 228 236 246 254 260 259 255 253 245 243 258 279 294 304 309 314 316 318 321 324 330 337 345 348 345
292 331 160 232 188 143 151 267 282 91 90 296 278 266 287 325 306 306 313 282 270 167 174 171 174 175 176 182 186 189 191 192 194 194 195 195 194 196 196 195 195 194 194 195 199 203 204 205 206 208 209 210 212 212 212 214 215 214 210 206 204 201 202 205 207 214 220 220 219 219 218 219 228 250 261 264 265 260 251 251 252 260 277 292 301 308 313 315 317 321 326 332 338 346 350 350 350
118 197 218 246 59 92 116 246 349 53 101 257 246 217 245 303 287 292 299 254 206 148 157 160 167 171 176 183 186 189 192 192 193 194 193 193 193 194 195 196 196 196 196 196 197 203 207 207 207 208 209 211 213 213 212 213 213 212 208 205 204 204 205 207 208 215 224 224 212 202 207 224 252 267 265 263 259 253 249 252 258 271 287 299 306 311 314 316 320 326 331 337 345 352 354 356 3
153 196 186 119 65 313 341 103 330 65 124 259 282 258 213 208 229 248 249 231 196 162 159 156 165 174 179 184 186 189 191 190 191 191 191 192 193 194 196 197 198 198 199 200 200 204 207 207 208 209 211 215 215 213 212 212 212 211 210 206 206 207 209 211 215 220 226 221 209 203 221 246 269 261 242 240 241 240 246 254 266 281 295 305 308 311 314 318 324 329 332 342 355 1 2 10 28
302 288 259 109 160 197 226 181 167 147 153 219 251 296 242 233 219 202 219 225 189 164 175 174 176 181 180 181 183 185 187 186 187 189 189 189 192 196 197 198 200 200 201 203 204 207 208 208 208 209 211 214 214 213 213 211 210 213 212 208 208 208 208 212 217 219 218 211 205 212 233 251 268 249 224 226 235 242 254 267 279 288 298 305 308 311 316 320 325 330 339 355 7 10 15 33 51
213 259 263 262 226 199 217 234 183 139 150 181 150 174 259 255 212 201 216 222 192 176 179 179 180 181 181 182 181 183 186 184 184 187 189 189 191 196 198 200 201 201 203 206 209 210 209 209 209 208 209 210 211 213 214 211 209 212 213 210 208 208 207 205 203 203 206 205 208 220 235 252 263 246 236 245 249 254 264 276 283 290 298 305 309 313 318 321 328 337 350 8 17 21 34 55 65
177 196 216 215 209 165 112 284 278 130 144 169 146 176 254 253 206 207 215 216 200 180 169 168 176 178 181 182 181 183 187 186 185 187 191 192 193 196 200 203 204 204 205 208 212 213 211 210 208 205 207 209 210 213 216 213 210 210 212 211 209 208 203 195 190 191 199 207 221 232 240 256 262 254 253 254 253 257 268 278 286 294 303 308 311 315 317 324 334 344 2 20 26 34 54 68 72